Location: Dos Palmas
(32.4468°N, 116.8732°W)
Time: 03:50:03
(UTC+00:00)

SL-4 R/B - Pass Details

Date: 20 June 2021
Orbit: 428 x 662 km, 51.6° (Epoch: 29 July)

Event Time Altitude Azimuth Distance (km) Brightness Sun altitude
Rises 04:15:06 0° 199° (SSW) 2,869 5.5 -14.3°
Reaches altitude 10° 04:17:42 10° 188° (S) 1,930 4.5 -14.7°
Enters shadow 04:20:47 26° 146° (SE) 1,141 3.0 -15.2°
Exits shadow 04:23:55 16° 81° (E) 1,480 3.8 -15.7°
Drops below altitude 10° 04:25:00 10° 71° (ENE) 1,813 4.4 -15.9°
Sets 04:27:22 0° 59° (ENE) 2,662 5.4 -16.2°
